Year,Month,Day,Hour,Minute,Value (Times are PST for temperature in C)
2008,04,01,00,00,0.20
2008,04,01,00,01,0.20
2008,04,01,00,02,0.20
2008,04,01,00,03,0.20
2008,04,01,00,04,0.20
2008,04,01,00,05,0.20
2008,04,01,00,06,0.20
2008,04,01,00,07,0.20
2008,04,01,00,08,0.20
2008,04,01,00,09,0.10
2008,04,01,00,10,0.10
2008,04,01,00,11,0.10
2008,04,01,00,12,0.10
2008,04,01,00,13,0.00
2008,04,01,00,14,-0.10
2008,04,01,00,15,-0.10
2008,04,01,00,16,-0.10
2008,04,01,00,17,-0.10
2008,04,01,00,18,-0.10
2008,04,01,00,19,0.00
2008,04,01,00,20,0.10
2008,04,01,00,21,0.10
2008,04,01,00,22,0.20
2008,04,01,00,23,0.20
2008,04,01,00,24,0.20
2008,04,01,00,25,0.30
2008,04,01,00,26,0.30
2008,04,01,00,27,0.30
2008,04,01,00,28,0.40
2008,04,01,00,29,0.40
2008,04,01,00,30,0.40
2008,04,01,00,31,0.40
2008,04,01,00,32,0.40
2008,04,01,00,33,0.40
2008,04,01,00,34,0.40
2008,04,01,00,35,0.40
2008,04,01,00,36,0.40
2008,04,01,00,37,0.40
2008,04,01,00,38,0.40
2008,04,01,00,39,0.40
2008,04,01,00,40,0.40
2008,04,01,00,41,0.30
2008,04,01,00,42,0.30
2008,04,01,00,43,0.30
2008,04,01,00,44,0.30
2008,04,01,00,45,0.30
2008,04,01,00,46,0.30
2008,04,01,00,47,0.30
2008,04,01,00,48,0.30
2008,04,01,00,49,0.30
2008,04,01,00,50,0.20
2008,04,01,00,51,0.20
2008,04,01,00,52,0.20
2008,04,01,00,53,0.20
2008,04,01,00,54,0.20
2008,04,01,00,55,0.10
2008,04,01,00,56,0.10
2008,04,01,00,57,0.10
2008,04,01,00,58,0.10
2008,04,01,00,59,0.10
2008,04,01,01,00,0.00
2008,04,01,01,01,0.00
2008,04,01,01,02,0.00
2008,04,01,01,03,0.00
2008,04,01,01,04,0.00
2008,04,01,01,05,-0.10
2008,04,01,01,06,-0.10
2008,04,01,01,07,-0.10
2008,04,01,01,08,-0.10
2008,04,01,01,09,-0.10
2008,04,01,01,10,-0.10
2008,04,01,01,11,-0.20
2008,04,01,01,12,-0.20
2008,04,01,01,13,-0.20
2008,04,01,01,14,-0.20
2008,04,01,01,15,-0.20
2008,04,01,01,16,-0.20
2008,04,01,01,17,-0.20
2008,04,01,01,18,-0.30
2008,04,01,01,19,-0.30
2008,04,01,01,20,-0.30
2008,04,01,01,21,-0.30
2008,04,01,01,22,-0.30
2008,04,01,01,23,-0.30
2008,04,01,01,24,-0.30
2008,04,01,01,25,-0.30
2008,04,01,01,26,-0.30
2008,04,01,01,27,-0.40
2008,04,01,01,28,-0.40
2008,04,01,01,29,-0.40
2008,04,01,01,30,-0.40
2008,04,01,01,31,-0.40
2008,04,01,01,32,-0.40
2008,04,01,01,33,-0.50
2008,04,01,01,34,-0.50
2008,04,01,01,35,-0.50
2008,04,01,01,36,-0.50
2008,04,01,01,37,-0.50
2008,04,01,01,38,-0.50
2008,04,01,01,39,-0.50
2008,04,01,01,40,-0.60
2008,04,01,01,41,-0.60
2008,04,01,01,42,-0.60
2008,04,01,01,43,-0.70
2008,04,01,01,44,-0.70
2008,04,01,01,45,-0.70
2008,04,01,01,46,-0.70
2008,04,01,01,47,-0.70
2008,04,01,01,48,-0.70
2008,04,01,01,49,-0.70
2008,04,01,01,50,-0.70
2008,04,01,01,51,-0.70
2008,04,01,01,52,-0.70
2008,04,01,01,53,-0.70
2008,04,01,01,54,-0.70
2008,04,01,01,55,-0.70
2008,04,01,01,56,-0.70
2008,04,01,01,57,-0.70
2008,04,01,01,58,-0.60
2008,04,01,01,59,-0.60
2008,04,01,02,00,-0.60
2008,04,01,02,01,-0.50
2008,04,01,02,02,-0.50
2008,04,01,02,03,-0.50
2008,04,01,02,04,-0.50
2008,04,01,02,05,-0.50
2008,04,01,02,06,-0.50
2008,04,01,02,07,-0.60
2008,04,01,02,08,-0.50
2008,04,01,02,09,-0.50
2008,04,01,02,10,-0.50
2008,04,01,02,11,-0.60
2008,04,01,02,12,-0.60
2008,04,01,02,13,-0.60
2008,04,01,02,14,-0.60
2008,04,01,02,15,-0.60
2008,04,01,02,16,-0.60
2008,04,01,02,17,-0.60
2008,04,01,02,18,-0.60
2008,04,01,02,19,-0.70
2008,04,01,02,20,-0.70
2008,04,01,02,21,-0.70
2008,04,01,02,22,-0.70
2008,04,01,02,23,-0.70
2008,04,01,02,24,-0.60
2008,04,01,02,25,-0.60
2008,04,01,02,26,-0.60
2008,04,01,02,27,-0.60
2008,04,01,02,28,-0.60
2008,04,01,02,29,-0.60
2008,04,01,02,30,-0.70
2008,04,01,02,31,-0.70
2008,04,01,02,32,-0.60
2008,04,01,02,33,-0.60
2008,04,01,02,34,-0.60
2008,04,01,02,35,-0.60
2008,04,01,02,36,-0.60
2008,04,01,02,37,-0.60
2008,04,01,02,38,-0.60
2008,04,01,02,39,-0.60
2008,04,01,02,40,-0.60
2008,04,01,02,41,-0.60
2008,04,01,02,42,-0.60
2008,04,01,02,43,-0.60
2008,04,01,02,44,-0.60
2008,04,01,02,45,-0.60
2008,04,01,02,46,-0.60
2008,04,01,02,47,-0.60
2008,04,01,02,48,-0.60
2008,04,01,02,49,-0.60
2008,04,01,02,50,-0.60
2008,04,01,02,51,-0.60
2008,04,01,02,52,-0.60
2008,04,01,02,53,-0.60
2008,04,01,02,54,-0.60
2008,04,01,02,55,-0.60
2008,04,01,02,56,-0.60
2008,04,01,02,57,-0.60
2008,04,01,02,58,-0.60
2008,04,01,02,59,-0.60
2008,04,01,03,00,-0.60
2008,04,01,03,01,-0.60
2008,04,01,03,02,-0.70
2008,04,01,03,03,-0.70
2008,04,01,03,04,-0.70
2008,04,01,03,05,-0.70
2008,04,01,03,06,-0.70
2008,04,01,03,07,-0.70
2008,04,01,03,08,-0.70
2008,04,01,03,09,-0.70
2008,04,01,03,10,-0.70
2008,04,01,03,11,-0.70
2008,04,01,03,12,-0.80
2008,04,01,03,13,-0.80
2008,04,01,03,14,-0.80
2008,04,01,03,15,-0.80
2008,04,01,03,16,-0.80
2008,04,01,03,17,-0.80
2008,04,01,03,18,-0.80
2008,04,01,03,19,-0.90
2008,04,01,03,20,-0.90
2008,04,01,03,21,-0.90
2008,04,01,03,22,-0.90
2008,04,01,03,23,-0.90
2008,04,01,03,24,-0.90
2008,04,01,03,25,-0.90
2008,04,01,03,26,-0.90
2008,04,01,03,27,-0.90
2008,04,01,03,28,-0.90
2008,04,01,03,29,-0.90
2008,04,01,03,30,-0.90
2008,04,01,03,31,-0.90
2008,04,01,03,32,-0.90
2008,04,01,03,33,-0.90
2008,04,01,03,34,-0.90
2008,04,01,03,35,-1.00
2008,04,01,03,36,-1.00
2008,04,01,03,37,-1.00
2008,04,01,03,38,-1.00
2008,04,01,03,39,-1.00
2008,04,01,03,40,-1.00
2008,04,01,03,41,-1.00
2008,04,01,03,42,-1.00
2008,04,01,03,43,-1.00
2008,04,01,03,44,-1.00
2008,04,01,03,45,-1.00
2008,04,01,03,46,-1.00
2008,04,01,03,47,-1.00
2008,04,01,03,48,-1.10
2008,04,01,03,49,-1.10
2008,04,01,03,50,-1.10
2008,04,01,03,51,-1.10
2008,04,01,03,52,-1.10
2008,04,01,03,53,-1.20
2008,04,01,03,54,-1.20
2008,04,01,03,55,-1.20
2008,04,01,03,56,-1.20
2008,04,01,03,57,-1.20
2008,04,01,03,58,-1.20
2008,04,01,03,59,-1.10
2008,04,01,04,00,-1.10
2008,04,01,04,01,-1.10
2008,04,01,04,02,-1.10
2008,04,01,04,03,-1.10
2008,04,01,04,04,-1.00
2008,04,01,04,05,-1.00
2008,04,01,04,06,-1.00
2008,04,01,04,07,-1.00
2008,04,01,04,08,-0.90
2008,04,01,04,09,-1.00
2008,04,01,04,10,-1.00
2008,04,01,04,11,-0.90
2008,04,01,04,12,-1.00
2008,04,01,04,13,-1.00
2008,04,01,04,14,-0.90
2008,04,01,04,15,-0.90
2008,04,01,04,16,-1.00
2008,04,01,04,17,-1.00
2008,04,01,04,18,-1.00
2008,04,01,04,19,-1.00
2008,04,01,04,20,-1.00
2008,04,01,04,21,-1.00
2008,04,01,04,22,-1.10
2008,04,01,04,23,-1.10
2008,04,01,04,24,-1.10
2008,04,01,04,25,-1.10
2008,04,01,04,26,-1.10
2008,04,01,04,27,-1.20
2008,04,01,04,28,-1.20
2008,04,01,04,29,-1.20
2008,04,01,04,30,-1.20
2008,04,01,04,31,-1.20
2008,04,01,04,32,-1.20
2008,04,01,04,33,-1.20
2008,04,01,04,34,-1.20
2008,04,01,04,35,-1.20
2008,04,01,04,36,-1.20
2008,04,01,04,37,-1.20
2008,04,01,04,38,-1.30
2008,04,01,04,39,-1.30
2008,04,01,04,40,-1.30
2008,04,01,04,41,-1.30
2008,04,01,04,42,-1.30
2008,04,01,04,43,-1.30
2008,04,01,04,44,-1.20
2008,04,01,04,45,-1.20
2008,04,01,04,46,-1.20
2008,04,01,04,47,-1.10
2008,04,01,04,48,-1.10
2008,04,01,04,49,-1.10
2008,04,01,04,50,-1.00
2008,04,01,04,51,-1.00
2008,04,01,04,52,-1.00
2008,04,01,04,53,-0.90
2008,04,01,04,54,-0.90
2008,04,01,04,55,-0.90
2008,04,01,04,56,-0.90
2008,04,01,04,57,-0.90
2008,04,01,04,58,-0.90
2008,04,01,04,59,-0.90
2008,04,01,05,00,-0.90
2008,04,01,05,01,-0.90
2008,04,01,05,02,-0.90
2008,04,01,05,03,-0.80
2008,04,01,05,04,-0.80
2008,04,01,05,05,-0.80
2008,04,01,05,06,-0.80
2008,04,01,05,07,-0.70
2008,04,01,05,08,-0.70
2008,04,01,05,09,-0.70
2008,04,01,05,10,-0.70
2008,04,01,05,11,-0.70
2008,04,01,05,12,-0.70
2008,04,01,05,13,-0.70
2008,04,01,05,14,-0.70
2008,04,01,05,15,-0.70
2008,04,01,05,16,-0.70
2008,04,01,05,17,-0.70
2008,04,01,05,18,-0.70
2008,04,01,05,19,-0.80
2008,04,01,05,20,-0.70
2008,04,01,05,21,-0.70
2008,04,01,05,22,-0.70
2008,04,01,05,23,-0.70
2008,04,01,05,24,-0.70
2008,04,01,05,25,-0.70
2008,04,01,05,26,-0.70
2008,04,01,05,27,-0.60
2008,04,01,05,28,-0.60
2008,04,01,05,29,-0.60
2008,04,01,05,30,-0.60
2008,04,01,05,31,-0.60
2008,04,01,05,32,-0.50
2008,04,01,05,33,-0.50
2008,04,01,05,34,-0.50
2008,04,01,05,35,-0.50
2008,04,01,05,36,-0.40
2008,04,01,05,37,-0.40
2008,04,01,05,38,-0.30
2008,04,01,05,39,-0.30
2008,04,01,05,40,-0.40
2008,04,01,05,41,-0.30
2008,04,01,05,42,-0.40
2008,04,01,05,43,-0.40
2008,04,01,05,44,-0.40
2008,04,01,05,45,-0.30
2008,04,01,05,46,-0.30
2008,04,01,05,47,-0.30
2008,04,01,05,48,-0.30
2008,04,01,05,49,-0.30
2008,04,01,05,50,-0.30
2008,04,01,05,51,-0.30
2008,04,01,05,52,-0.30
2008,04,01,05,53,-0.30
2008,04,01,05,54,-0.30
2008,04,01,05,55,-0.30
2008,04,01,05,56,-0.30
2008,04,01,05,57,-0.30
2008,04,01,05,58,-0.30
2008,04,01,05,59,-0.30
2008,04,01,06,00,-0.30
2008,04,01,06,01,-0.30
2008,04,01,06,02,-0.30
2008,04,01,06,03,-0.30
2008,04,01,06,04,-0.30
2008,04,01,06,05,-0.30
2008,04,01,06,06,-0.30
2008,04,01,06,07,-0.30
2008,04,01,06,08,-0.30
2008,04,01,06,09,-0.30
2008,04,01,06,10,-0.40
2008,04,01,06,11,-0.40
2008,04,01,06,12,-0.40
2008,04,01,06,13,-0.40
2008,04,01,06,14,-0.40
2008,04,01,06,15,-0.40
2008,04,01,06,16,-0.40
2008,04,01,06,17,-0.50
2008,04,01,06,18,-0.40
2008,04,01,06,19,-0.40
2008,04,01,06,20,-0.40
2008,04,01,06,21,-0.40
2008,04,01,06,22,-0.40
2008,04,01,06,23,-0.40
2008,04,01,06,24,-0.50
2008,04,01,06,25,-0.50
2008,04,01,06,26,-0.60
2008,04,01,06,27,-0.60
2008,04,01,06,28,-0.60
2008,04,01,06,29,-0.60
2008,04,01,06,30,-0.60
2008,04,01,06,31,-0.70
2008,04,01,06,32,-0.70
2008,04,01,06,33,-0.70
2008,04,01,06,34,-0.70
2008,04,01,06,35,-0.70
2008,04,01,06,36,-0.70
2008,04,01,06,37,-0.70
2008,04,01,06,38,-0.70
2008,04,01,06,39,-0.70
2008,04,01,06,40,-0.70
2008,04,01,06,41,-0.70
2008,04,01,06,42,-0.70
2008,04,01,06,43,-0.70
2008,04,01,06,44,-0.80
2008,04,01,06,45,-0.80
2008,04,01,06,46,-0.80
2008,04,01,06,47,-0.80
2008,04,01,06,48,-0.80
2008,04,01,06,49,-0.80
2008,04,01,06,50,-0.80
2008,04,01,06,51,-0.80
2008,04,01,06,52,-0.80
2008,04,01,06,53,-0.80
2008,04,01,06,54,-0.80
2008,04,01,06,55,-0.80
2008,04,01,06,56,-0.80
2008,04,01,06,57,-0.80
2008,04,01,06,58,-0.80
2008,04,01,06,59,-0.80
2008,04,01,07,00,-0.80
2008,04,01,07,01,-0.80
2008,04,01,07,02,-0.80
2008,04,01,07,03,-0.80
2008,04,01,07,04,-0.80
2008,04,01,07,05,-0.80
2008,04,01,07,06,-0.80
2008,04,01,07,07,-0.80
2008,04,01,07,08,-0.80
2008,04,01,07,09,-0.80
2008,04,01,07,10,-0.80
2008,04,01,07,11,-0.80
2008,04,01,07,12,-0.80
2008,04,01,07,13,-0.80
2008,04,01,07,14,-0.80
2008,04,01,07,15,-0.80
2008,04,01,07,16,-0.80
2008,04,01,07,17,-0.80
2008,04,01,07,18,-0.80
2008,04,01,07,19,-0.80
2008,04,01,07,20,-0.80
2008,04,01,07,21,-0.80
2008,04,01,07,22,-0.80
2008,04,01,07,23,-0.80
2008,04,01,07,24,-0.80
2008,04,01,07,25,-0.70
2008,04,01,07,26,-0.70
2008,04,01,07,27,-0.70
2008,04,01,07,28,-0.70
2008,04,01,07,29,-0.60
2008,04,01,07,30,-0.60
2008,04,01,07,31,-0.60
2008,04,01,07,32,-0.60
2008,04,01,07,33,-0.50
2008,04,01,07,34,-0.50
2008,04,01,07,35,-0.50
2008,04,01,07,36,-0.50
2008,04,01,07,37,-0.50
2008,04,01,07,38,-0.40
2008,04,01,07,39,-0.40
2008,04,01,07,40,-0.40
2008,04,01,07,41,-0.30
2008,04,01,07,42,-0.30
2008,04,01,07,43,-0.30
2008,04,01,07,44,-0.30
2008,04,01,07,45,-0.30
2008,04,01,07,46,-0.20
2008,04,01,07,47,-0.20
2008,04,01,07,48,-0.10
2008,04,01,07,49,0.00
2008,04,01,07,50,0.00
2008,04,01,07,51,0.10
2008,04,01,07,52,0.10
2008,04,01,07,53,0.10
2008,04,01,07,54,0.10
2008,04,01,07,55,0.10
2008,04,01,07,56,0.20
2008,04,01,07,57,0.20
2008,04,01,07,58,0.20
2008,04,01,07,59,0.20
2008,04,01,08,00,0.30
2008,04,01,08,01,0.30
2008,04,01,08,02,0.30
2008,04,01,08,03,0.40
2008,04,01,08,04,0.40
2008,04,01,08,05,0.50
2008,04,01,08,06,0.50
2008,04,01,08,07,0.60
2008,04,01,08,08,0.60
2008,04,01,08,09,0.60
2008,04,01,08,10,0.70
2008,04,01,08,11,0.70
2008,04,01,08,12,0.80
2008,04,01,08,13,0.80
2008,04,01,08,14,0.90
2008,04,01,08,15,0.90
2008,04,01,08,16,1.00
2008,04,01,08,17,1.00
2008,04,01,08,18,1.10
2008,04,01,08,19,1.20
2008,04,01,08,20,1.30
2008,04,01,08,21,1.30
2008,04,01,08,22,1.30
2008,04,01,08,23,1.30
2008,04,01,08,24,1.40
2008,04,01,08,25,1.50
2008,04,01,08,26,1.60
2008,04,01,08,27,1.70
2008,04,01,08,28,1.80
2008,04,01,08,29,1.90
2008,04,01,08,30,2.00
2008,04,01,08,31,2.10
2008,04,01,08,32,2.10
2008,04,01,08,33,2.20
2008,04,01,08,34,2.30
2008,04,01,08,35,2.30
2008,04,01,08,36,2.40
2008,04,01,08,37,2.50
2008,04,01,08,38,2.60
2008,04,01,08,39,2.70
2008,04,01,08,40,2.80
2008,04,01,08,41,2.80
2008,04,01,08,42,2.90
2008,04,01,08,43,3.00
2008,04,01,08,44,3.10
2008,04,01,08,45,3.20
2008,04,01,08,46,3.20
2008,04,01,08,47,3.30
2008,04,01,08,48,3.30
2008,04,01,08,49,3.40
2008,04,01,08,50,3.50
2008,04,01,08,51,3.60
2008,04,01,08,52,3.60
2008,04,01,08,53,3.70
2008,04,01,08,54,3.70
2008,04,01,08,55,3.80
2008,04,01,08,56,3.80
2008,04,01,08,57,3.80
2008,04,01,08,58,3.90
2008,04,01,08,59,3.90
2008,04,01,09,00,3.90
2008,04,01,09,01,3.90
2008,04,01,09,02,4.00
2008,04,01,09,03,4.00
2008,04,01,09,04,4.00
2008,04,01,09,05,4.10
2008,04,01,09,06,4.10
2008,04,01,09,07,4.10
2008,04,01,09,08,4.10
2008,04,01,09,09,4.10
2008,04,01,09,10,4.20
2008,04,01,09,11,4.20
2008,04,01,09,12,4.30
2008,04,01,09,13,4.30
2008,04,01,09,14,4.30
2008,04,01,09,15,4.30
2008,04,01,09,16,4.30
2008,04,01,09,17,4.30
2008,04,01,09,18,4.30
2008,04,01,09,19,4.30
2008,04,01,09,20,4.30
2008,04,01,09,21,4.30
2008,04,01,09,22,4.30
2008,04,01,09,23,4.30
2008,04,01,09,24,4.30
2008,04,01,09,25,4.40
2008,04,01,09,26,4.40
2008,04,01,09,27,4.40
2008,04,01,09,28,4.40
2008,04,01,09,29,4.40
2008,04,01,09,30,4.40
2008,04,01,09,31,4.40
2008,04,01,09,32,4.50
2008,04,01,09,33,4.50
2008,04,01,09,34,4.50
2008,04,01,09,35,4.50
2008,04,01,09,36,4.50
2008,04,01,09,37,4.50
2008,04,01,09,38,4.50
2008,04,01,09,39,4.60
2008,04,01,09,40,4.60
2008,04,01,09,41,4.60
2008,04,01,09,42,4.60
2008,04,01,09,43,4.60
2008,04,01,09,44,4.60
2008,04,01,09,45,4.70
2008,04,01,09,46,4.70
2008,04,01,09,47,4.70
2008,04,01,09,48,4.70
2008,04,01,09,49,4.70
2008,04,01,09,50,4.70
2008,04,01,09,51,4.60
2008,04,01,09,52,4.60
2008,04,01,09,53,4.70
2008,04,01,09,54,4.70
2008,04,01,09,55,4.80
2008,04,01,09,56,4.80
2008,04,01,09,57,4.80
2008,04,01,09,58,4.80
2008,04,01,09,59,4.80
2008,04,01,10,00,4.90
2008,04,01,10,01,4.90
2008,04,01,10,02,4.90
2008,04,01,10,03,4.90
2008,04,01,10,04,4.90
2008,04,01,10,05,4.90
2008,04,01,10,06,5.00
2008,04,01,10,07,5.10
2008,04,01,10,08,5.10
2008,04,01,10,09,5.10
2008,04,01,10,10,5.10
2008,04,01,10,11,5.20
2008,04,01,10,12,5.20
2008,04,01,10,13,5.10
2008,04,01,10,14,5.10
2008,04,01,10,15,5.10
2008,04,01,10,16,5.20
2008,04,01,10,17,5.20
2008,04,01,10,18,5.20
2008,04,01,10,19,5.20
2008,04,01,10,20,5.10
2008,04,01,10,21,5.10
2008,04,01,10,22,5.20
2008,04,01,10,23,5.20
2008,04,01,10,24,5.20
2008,04,01,10,25,5.20
2008,04,01,10,26,5.20
2008,04,01,10,27,5.20
2008,04,01,10,28,5.20
2008,04,01,10,29,5.20
2008,04,01,10,30,5.20
2008,04,01,10,31,5.10
2008,04,01,10,32,5.10
2008,04,01,10,33,5.10
2008,04,01,10,34,5.20
2008,04,01,10,35,5.20
2008,04,01,10,36,5.30
2008,04,01,10,37,5.30
2008,04,01,10,38,5.40
2008,04,01,10,39,5.30
2008,04,01,10,40,5.30
2008,04,01,10,41,5.40
2008,04,01,10,42,5.40
2008,04,01,10,43,5.40
2008,04,01,10,44,5.40
2008,04,01,10,45,5.40
2008,04,01,10,46,5.40
2008,04,01,10,47,5.40
2008,04,01,10,48,5.40
2008,04,01,10,49,5.40
2008,04,01,10,50,5.40
2008,04,01,10,51,5.50
2008,04,01,10,52,5.50
2008,04,01,10,53,5.50
2008,04,01,10,54,5.50
2008,04,01,10,55,5.60
2008,04,01,10,56,5.60
2008,04,01,10,57,5.60
2008,04,01,10,58,5.60
2008,04,01,10,59,5.50
2008,04,01,11,00,5.50
2008,04,01,11,01,5.50
2008,04,01,11,02,5.40
2008,04,01,11,03,5.40
2008,04,01,11,04,5.50
2008,04,01,11,05,5.60
2008,04,01,11,06,5.60
2008,04,01,11,07,5.50
2008,04,01,11,08,5.50
2008,04,01,11,09,5.40
2008,04,01,11,10,5.30
2008,04,01,11,11,5.30
2008,04,01,11,12,5.40
2008,04,01,11,13,5.40
2008,04,01,11,14,5.40
2008,04,01,11,15,5.40
2008,04,01,11,16,5.40
2008,04,01,11,17,5.40
2008,04,01,11,18,5.40
2008,04,01,11,19,5.40
2008,04,01,11,20,5.30
2008,04,01,11,21,5.30
2008,04,01,11,22,5.40
2008,04,01,11,23,5.40
2008,04,01,11,24,5.40
2008,04,01,11,25,5.40
2008,04,01,11,26,5.50
2008,04,01,11,27,5.50
2008,04,01,11,28,5.50
2008,04,01,11,29,5.50
2008,04,01,11,30,5.50
2008,04,01,11,31,5.40
2008,04,01,11,32,5.40
2008,04,01,11,33,5.40
2008,04,01,11,34,5.30
2008,04,01,11,35,5.30
2008,04,01,11,36,5.30
2008,04,01,11,37,5.30
2008,04,01,11,38,5.30
2008,04,01,11,39,5.30
2008,04,01,11,40,5.30
2008,04,01,11,41,5.30
2008,04,01,11,42,5.30
2008,04,01,11,43,5.30
2008,04,01,11,44,5.30
2008,04,01,11,45,5.40
2008,04,01,11,46,5.50
2008,04,01,11,47,5.60
2008,04,01,11,48,5.70
2008,04,01,11,49,5.70
2008,04,01,11,50,5.80
2008,04,01,11,51,5.80
2008,04,01,11,52,5.90
2008,04,01,11,53,6.00
2008,04,01,11,54,6.10
2008,04,01,11,55,6.20
2008,04,01,11,56,6.30
2008,04,01,11,57,6.30
2008,04,01,11,58,6.30
2008,04,01,11,59,6.20
2008,04,01,12,00,6.20
2008,04,01,12,01,6.20
2008,04,01,12,02,6.30
2008,04,01,12,03,6.30
2008,04,01,12,04,6.20
2008,04,01,12,05,6.10
2008,04,01,12,06,6.00
2008,04,01,12,07,6.00
2008,04,01,12,08,5.90
2008,04,01,12,09,5.90
2008,04,01,12,10,5.90
2008,04,01,12,11,6.00
2008,04,01,12,12,6.10
2008,04,01,12,13,6.10
2008,04,01,12,14,6.20
2008,04,01,12,15,6.20
2008,04,01,12,16,6.20
2008,04,01,12,17,6.20
2008,04,01,12,18,6.20
2008,04,01,12,19,6.30
2008,04,01,12,20,6.40
2008,04,01,12,21,6.30
2008,04,01,12,22,6.30
2008,04,01,12,23,6.30
2008,04,01,12,24,6.40
2008,04,01,12,25,6.40
2008,04,01,12,26,6.40
2008,04,01,12,27,6.40
2008,04,01,12,28,6.40
2008,04,01,12,29,6.40
2008,04,01,12,30,6.40
2008,04,01,12,31,6.40
2008,04,01,12,32,6.50
2008,04,01,12,33,6.40
2008,04,01,12,34,6.30
2008,04,01,12,35,6.30
2008,04,01,12,36,6.30
2008,04,01,12,37,6.30
2008,04,01,12,38,6.30
2008,04,01,12,39,6.20
2008,04,01,12,40,6.20
2008,04,01,12,41,6.20
2008,04,01,12,42,6.10
2008,04,01,12,43,6.10
2008,04,01,12,44,6.20
2008,04,01,12,45,6.20
2008,04,01,12,46,6.20
2008,04,01,12,47,6.20
2008,04,01,12,48,6.20
2008,04,01,12,49,6.10
2008,04,01,12,50,6.10
2008,04,01,12,51,6.10
2008,04,01,12,52,6.20
2008,04,01,12,53,6.30
2008,04,01,12,54,6.50
2008,04,01,12,55,6.60
2008,04,01,12,56,6.50
2008,04,01,12,57,6.50
2008,04,01,12,58,6.40
2008,04,01,12,59,6.30
2008,04,01,13,00,6.30
2008,04,01,13,01,6.20
2008,04,01,13,02,6.20
2008,04,01,13,03,6.10
2008,04,01,13,04,6.10
2008,04,01,13,05,6.10
2008,04,01,13,06,6.10
2008,04,01,13,07,6.10
2008,04,01,13,08,6.10
2008,04,01,13,09,6.10
2008,04,01,13,10,6.20
2008,04,01,13,11,6.30
2008,04,01,13,12,6.40
2008,04,01,13,13,6.50
2008,04,01,13,14,6.60
2008,04,01,13,15,6.70
2008,04,01,13,16,6.80
2008,04,01,13,17,6.90
2008,04,01,13,18,7.00
2008,04,01,13,19,7.10
2008,04,01,13,20,7.00
2008,04,01,13,21,6.90
2008,04,01,13,22,6.80
2008,04,01,13,23,6.80
2008,04,01,13,24,6.70
2008,04,01,13,25,6.60
2008,04,01,13,26,6.60
2008,04,01,13,27,6.60
2008,04,01,13,28,6.60
2008,04,01,13,29,6.60
2008,04,01,13,30,6.60
2008,04,01,13,31,6.70
2008,04,01,13,32,6.70
2008,04,01,13,33,6.80
2008,04,01,13,34,6.80
2008,04,01,13,35,6.80
2008,04,01,13,36,6.80
2008,04,01,13,37,6.70
2008,04,01,13,38,6.70
2008,04,01,13,39,6.70
2008,04,01,13,40,6.70
2008,04,01,13,41,6.60
2008,04,01,13,42,6.60
2008,04,01,13,43,6.60
2008,04,01,13,44,6.60
2008,04,01,13,45,6.70
2008,04,01,13,46,6.70
2008,04,01,13,47,6.70
2008,04,01,13,48,6.70
2008,04,01,13,49,6.80
2008,04,01,13,50,6.70
2008,04,01,13,51,6.70
2008,04,01,13,52,6.60
2008,04,01,13,53,6.60
2008,04,01,13,54,6.60
2008,04,01,13,55,6.60
2008,04,01,13,56,6.60
2008,04,01,13,57,6.60
2008,04,01,13,58,6.60
2008,04,01,13,59,6.60
2008,04,01,14,00,6.60
2008,04,01,14,01,6.60
2008,04,01,14,02,6.70
2008,04,01,14,03,6.70
2008,04,01,14,04,6.60
2008,04,01,14,05,6.50
2008,04,01,14,06,6.40
2008,04,01,14,07,6.40
2008,04,01,14,08,6.40
2008,04,01,14,09,6.50
2008,04,01,14,10,6.50
2008,04,01,14,11,6.60
2008,04,01,14,12,6.60
2008,04,01,14,13,6.60
2008,04,01,14,14,6.60
2008,04,01,14,15,6.70
2008,04,01,14,16,6.80
2008,04,01,14,17,6.90
2008,04,01,14,18,7.00
2008,04,01,14,19,7.10
2008,04,01,14,20,7.10
2008,04,01,14,21,7.20
2008,04,01,14,22,7.20
2008,04,01,14,23,7.20
2008,04,01,14,24,7.20
2008,04,01,14,25,7.20
2008,04,01,14,26,7.10
2008,04,01,14,27,7.10
2008,04,01,14,28,7.10
2008,04,01,14,29,7.00
2008,04,01,14,30,7.00
2008,04,01,14,31,7.10
2008,04,01,14,32,7.20
2008,04,01,14,33,7.20
2008,04,01,14,34,7.30
2008,04,01,14,35,7.30
2008,04,01,14,36,7.40
2008,04,01,14,37,7.40
2008,04,01,14,38,7.40
2008,04,01,14,39,7.30
2008,04,01,14,40,7.30
2008,04,01,14,41,7.30
2008,04,01,14,42,7.30
2008,04,01,14,43,7.30
2008,04,01,14,44,7.30
2008,04,01,14,45,7.40
2008,04,01,14,46,7.30
2008,04,01,14,47,7.30
2008,04,01,14,48,7.20
2008,04,01,14,49,7.30
2008,04,01,14,50,7.40
2008,04,01,14,51,7.50
2008,04,01,14,52,7.60
2008,04,01,14,53,7.50
2008,04,01,14,54,7.30
2008,04,01,14,55,7.30
2008,04,01,14,56,7.20
2008,04,01,14,57,7.10
2008,04,01,14,58,7.10
2008,04,01,14,59,7.10
2008,04,01,15,00,7.10
2008,04,01,15,01,7.10
2008,04,01,15,02,7.20
2008,04,01,15,03,7.20
2008,04,01,15,04,7.20
2008,04,01,15,05,7.20
2008,04,01,15,06,7.20
2008,04,01,15,07,7.20
2008,04,01,15,08,7.20
2008,04,01,15,09,7.20
2008,04,01,15,10,7.20
2008,04,01,15,11,7.20
2008,04,01,15,12,7.30
2008,04,01,15,13,7.30
2008,04,01,15,14,7.30
2008,04,01,15,15,7.30
2008,04,01,15,16,7.30
2008,04,01,15,17,7.30
2008,04,01,15,18,7.20
2008,04,01,15,19,7.20
2008,04,01,15,20,7.10
2008,04,01,15,21,7.00
2008,04,01,15,22,6.90
2008,04,01,15,23,6.90
2008,04,01,15,24,6.90
2008,04,01,15,25,6.90
2008,04,01,15,26,6.90
2008,04,01,15,27,6.80
2008,04,01,15,28,6.80
2008,04,01,15,29,6.80
2008,04,01,15,30,6.80
2008,04,01,15,31,6.80
2008,04,01,15,32,6.90
2008,04,01,15,33,6.90
2008,04,01,15,34,6.90
2008,04,01,15,35,6.80
2008,04,01,15,36,6.80
2008,04,01,15,37,6.70
2008,04,01,15,38,6.70
2008,04,01,15,39,6.70
2008,04,01,15,40,6.70
2008,04,01,15,41,6.80
2008,04,01,15,42,6.80
2008,04,01,15,43,6.80
2008,04,01,15,44,6.90
2008,04,01,15,45,6.90
2008,04,01,15,46,7.00
2008,04,01,15,47,7.00
2008,04,01,15,48,7.10
2008,04,01,15,49,7.10
2008,04,01,15,50,7.10
2008,04,01,15,51,7.10
2008,04,01,15,52,7.10
2008,04,01,15,53,7.10
2008,04,01,15,54,7.10
2008,04,01,15,55,7.00
2008,04,01,15,56,7.00
2008,04,01,15,57,6.90
2008,04,01,15,58,6.80
2008,04,01,15,59,6.80
2008,04,01,16,00,6.80
2008,04,01,16,01,6.80
2008,04,01,16,02,6.70
2008,04,01,16,03,6.70
2008,04,01,16,04,6.70
2008,04,01,16,05,6.70
2008,04,01,16,06,6.70
2008,04,01,16,07,6.70
2008,04,01,16,08,6.70
2008,04,01,16,09,6.70
2008,04,01,16,10,6.70
2008,04,01,16,11,6.60
2008,04,01,16,12,6.60
2008,04,01,16,13,6.60
2008,04,01,16,14,6.60
2008,04,01,16,15,6.70
2008,04,01,16,16,6.70
2008,04,01,16,17,6.70
2008,04,01,16,18,6.70
2008,04,01,16,19,6.70
2008,04,01,16,20,6.70
2008,04,01,16,21,6.60
2008,04,01,16,22,6.60
2008,04,01,16,23,6.60
2008,04,01,16,24,6.60
2008,04,01,16,25,6.60
2008,04,01,16,26,6.50
2008,04,01,16,27,6.50
2008,04,01,16,28,6.50
2008,04,01,16,29,6.50
2008,04,01,16,30,6.50
2008,04,01,16,31,6.50
2008,04,01,16,32,6.50
2008,04,01,16,33,6.60
2008,04,01,16,34,6.60
2008,04,01,16,35,6.60
2008,04,01,16,36,6.60
2008,04,01,16,37,6.60
2008,04,01,16,38,6.60
2008,04,01,16,39,6.60
2008,04,01,16,40,6.50
2008,04,01,16,41,6.50
2008,04,01,16,42,6.50
2008,04,01,16,43,6.40
2008,04,01,16,44,6.40
2008,04,01,16,45,6.40
2008,04,01,16,46,6.40
2008,04,01,16,47,6.40
2008,04,01,16,48,6.40
2008,04,01,16,49,6.40
2008,04,01,16,50,6.40
2008,04,01,16,51,6.30
2008,04,01,16,52,6.30
2008,04,01,16,53,6.30
2008,04,01,16,54,6.30
2008,04,01,16,55,6.30
2008,04,01,16,56,6.30
2008,04,01,16,57,6.30
2008,04,01,16,58,6.30
2008,04,01,16,59,6.30
2008,04,01,17,00,6.30
2008,04,01,17,01,6.30
2008,04,01,17,02,6.20
2008,04,01,17,03,6.30
2008,04,01,17,04,6.30
2008,04,01,17,05,6.30
2008,04,01,17,06,6.30
2008,04,01,17,07,6.30
2008,04,01,17,08,6.30
2008,04,01,17,09,6.30
2008,04,01,17,10,6.30
2008,04,01,17,11,6.30
2008,04,01,17,12,6.30
2008,04,01,17,13,6.30
2008,04,01,17,14,6.30
2008,04,01,17,15,6.30
2008,04,01,17,16,6.30
2008,04,01,17,17,6.30
2008,04,01,17,18,6.30
2008,04,01,17,19,6.30
2008,04,01,17,20,6.40
2008,04,01,17,21,6.40
2008,04,01,17,22,6.40
2008,04,01,17,23,6.40
2008,04,01,17,24,6.40
2008,04,01,17,25,6.40
2008,04,01,17,26,6.40
2008,04,01,17,27,6.30
2008,04,01,17,28,6.30
2008,04,01,17,29,6.30
2008,04,01,17,30,6.30
2008,04,01,17,31,6.30
2008,04,01,17,32,6.30
2008,04,01,17,33,6.30
2008,04,01,17,34,6.30
2008,04,01,17,35,6.30
2008,04,01,17,36,6.20
2008,04,01,17,37,6.20
2008,04,01,17,38,6.20
2008,04,01,17,39,6.20
2008,04,01,17,40,6.20
2008,04,01,17,41,6.20
2008,04,01,17,42,6.20
2008,04,01,17,43,6.20
2008,04,01,17,44,6.20
2008,04,01,17,45,6.20
2008,04,01,17,46,6.20
2008,04,01,17,47,6.20
2008,04,01,17,48,6.20